sat.trackr.live / text

‹ back to catalog

STARLINK-1280

NORAD 45388 · 2020-019AE

PAYLOAD ACTIVE UNKNOWN

§ Identity

Operator
Country
US
Launch date
2020-03-18
Launch site
AFETR
Launch vehicle
Mass (kg)
RCS (m²)

Purposes: comms

External: N2YO · Heavens-Above · Gunter

§ Orbital elements

Epoch: 2026-08-18T22:02:17.124864Z

Period
88.21 min
Inclination
53.0209°
Eccentricity
0.0010238
Mean motion
16.32379338 rev/d
Perigee alt
179.4 km
Apogee alt
192.9 km
Semi-major
6,564.3 km
B*
6.4322e-4
RAAN
25.3511°
Arg perigee
302.9055°
Mean anomaly
57.1003°
Rev number
35,602

§ Raw data

STARLINK-12801 45388U 20019AE  26230.91825376  .03862670  12174-4  64322-3 0  99952 45388  53.0209  25.3511 0010238 302.9055  57.1003 16.32379338356021

JSON: /api/v1/satellites/45388 · /tle

For live sub-satellite position, see the globe view (requires WebGL).

§ Visibility from observer

Set your observer location to see the next 7 days of passes ≥ 10°. The values pass through the URL so the page stays shareable.

No JS? Fill the form by hand. The geolocation button needs JavaScript.